Location: Moorefield
(40.6897°N, 100.3996°W)
Time: 07:45:11
(UTC+00:00)

ISS - Pass Details

Date: 26 August 2019
Orbit: 411 x 421 km, 51.6° (Epoch: 17 October)

Event Time Altitude Azimuth Distance (km) Brightness Sun altitude
Exits shadow 11:16:12 - 205° (SSW) 1,770 -1.0 -9.2°
Reaches altitude 10° 11:16:59 10° 200° (SSW) 1,479 -1.4 -9.0°
Maximum altitude 11:19:58 32° 136° (SE) 743 -2.3 -8.5°
Drops below altitude 10° 11:22:59 10° 71° (ENE) 1,493 0.8 -8.0°
Sets 11:25:13 0° 61° (ENE) 2,362 2.4 -7.6°
